Other Public Products
Issued by NWS Grand Forks, ND

Home | Current Version | Previous Version | Graphics & Text | Print | Product List | Glossary On
Versions: 1 2 3 4 5 6 7 8 9 10 11 12 13 14 15 16 17 18 19 20 21 22 23 24 25 26 27 28 29 30 31 32 33 34 35 36 37 38 39 40 41 42 43 44 45 46 47 48 49 50
000
FPUS83 KFGF 291131
OPUFGF
PRAIRIE TO PINES WEATHER ROUNDUP
NATIONAL WEATHER SERVICE EASTERN NORTH DAKOTA/GRAND FORKS ND
600 AM CDT SAT AUG 29 2015

 **SATELLITE DATA USED TO AUGMENT SKY COVER AT AUTOMATED STATIONS**
 *****  WEATHER ACROSS EASTERN NORTH DAKOTA  *****

CITY           SKY/WX    TMP DP  RH WIND       PRES   REMARKS
GRAND FORKS    CLEAR     62  61  96 SE5       29.89S
GRAND FORKS AF FOG       59  59 100 S3        29.90R VSB 1/4
GRAND CITY NWS   N/A     63 N/A N/A S6          N/A
BUXTON         NOT AVBL
DEVILS LAKE      N/A     63  55  77 SE3       29.89S VSB 1/2
FARGO          CLEAR     64  60  87 S9        29.93S
WAHPETON ARPT  SUNNY     59  55  88 S8        29.98R
$$

 *****  WEATHER ACROSS CENTRAL AND WESTERN NORTH DAKOTA  *****

CITY           SKY/WX    TMP DP  RH WIND       PRES   REMARKS
JAMESTOWN      CLEAR     62  61  96 S5        29.91S
BISMARCK       CLOUDY    60  59  96 CALM      29.93R
MINOT          CLOUDY    61  52  72 SW5       29.88F HAZE
MINOT AFB      PTCLDY    55  55  97 CALM      29.87F
GARRISON         N/A     54  50  86 CALM      29.92S
WILLISTON      CLOUDY    58  52  80 SW3       29.91F HAZE
DICKINSON      CLOUDY    56  45  66 S7        29.95F HAZE
HETTINGER      CLOUDY    51  46  83 NW3       30.01S HAZE
$$

 *****  OTHER OBSERVATIONS NORTHEAST NORTH DAKOTA  *****

CITY           SKY/WX    TMP DP  RH WIND       PRES   REMARKS
WALHALLA       FAIR      57  57 100 MISG      29.89F FOG
LANGDON        FAIR      61  61 100 SE7       29.92S FOG
CAVALIER       FOG       63  63 100 CALM      29.90R VSB<1/4
GRAFTON        FOG       61  61 100 CALM      29.90S VSB<1/4
CANDO          FAIR      57  57 100 SE6       29.91R FOG
FORT TOTTEN      N/A     64  64  98 SE5       29.95S
ROLLA          FOG       59  59 100 SW3       29.92S VSB 1/4
RUGBY          FAIR      59  59 100 CALM      29.90R
 ***** THE ABOVE OBSERVATIONS ARE NON NWS ARE NOT QUALITY
        CONTROLLED AND MAY MIS-REPORT RAIN FOR SNOW...
$$

 *****  OTHER OBSERVATIONS SOUTHEAST NORTH DAKOTA *****

CITY           SKY/WX    TMP DP  RH WIND       PRES   REMARKS
COOPERSTOWN    NOT AVBL
VALLEY CITY    CLOUDY    63  63 100 S8        29.93R
OAKES            N/A     63  55  77 S12       29.95R
GWINNER          N/A     63  63 100 S12       29.96R
SHEYENNE NWR     N/A     63  61  94 S6        29.95S
BUFFALO        NOT AVBL
WYNDMERE         N/A     59  59 100 S3          N/A
 ***** THE ABOVE OBSERVATIONS ARE NON NWS ARE NOT QUALITY
       CONTROLLED AND MAY MIS-REPORT RAIN FOR SNOW...
$$

  *****  WEATHER ACROSS NORTHERN MINNESOTA  *****

CITY           SKY/WX    TMP DP  RH WIND       PRES   REMARKS
FLAG ISLAND    MOCLDY    64  63  94 CALM      29.92R FOG
WARROAD        FOG       63  57  82 SW3       29.94R VSB 1/4
ROSEAU         HAZE      63  57  82 CALM      29.93R VSB 1/4
HALLOCK        FOG       64  64 100 SE7       29.89S VSB 1/4
THF RVR FALLS  CLEAR    N/A N/A N/A S8        29.93R
HALSTAD        NOT AVBL
FOSSTON        CLEAR     61  57  88 S9        29.96R
BAUDETTE       FOG       60  59  96 S3        29.94R VSB 1/4
WASKISH        CLEAR     61  61 100 CALM      29.96S
CROOKSTON      CLEAR     63  61  94 S8        29.92S
$$
  *****  WEATHER ACROSS CENTRAL AND WEST MINNESOTA  *****

CITY           SKY/WX    TMP DP  RH WIND       PRES   REMARKS
BEMIDJI        CLEAR     60  59  96 S3        29.97S
PARK RAPIDS    PTCLDY    60  57  89 S6        29.99S
WADENA         PTCLDY    55  55 100 CALM      30.00S
DETROIT LAKES  CLEAR     61  59  94 S7        30.00R
MOORHEAD       CLEAR     61  59  94 S10       29.96R
FERGUS FALLS   CLEAR     59  59 100 S9        30.00R
ELBOW LAKE     FAIR      57  55  95 S8        30.01R
MORRIS MN      CLEAR     55  54  94 S7        30.01S
STAPLES        CLOUDY    57  55  94 S6        30.02R
WHEATON        CLEAR     55  55 100 SE7       30.01R
$$
  *****  WEATHER ELSEWHERE ACROSS MINNESOTA  *****

CITY           SKY/WX    TMP DP  RH WIND       PRES   REMARKS
DULUTH         CLOUDY    59  56  89 SW9       30.03F
INTRNTL FALLS  CLOUDY    66  63  90 VRB3      29.95R
ELY            MOCLDY    57  55  94 SW5       30.00F
CLOQUET        CLOUDY    57  55  94 SW6       30.04F
BRAINERD       MOCLDY    57  55  93 S5        30.04R
HIBBING        CLOUDY    63  58  83 VRB6      30.02S
ALEXANDRIA     CLEAR     58  56  93 S7        30.03R
SAINT CLOUD    PTCLDY    53  53 100 CALM      30.05S FOG
MINNEAPOLIS    PTCLDY    57  54  89 E7        30.05R
$$

  *****  WEATHER ACROSS SOUTH DAKOTA  *****

CITY           SKY/WX    TMP DP  RH WIND       PRES   REMARKS
SIOUX FALLS    CLEAR     52  50  93 CALM      30.04S
BROOKINGS      CLEAR     54  50  87 CALM      30.06R
WATERTOWN      CLEAR     56  55  97 S3        30.02R
HURON          CLEAR     59  58  96 S8        30.00S
SISSETON         N/A     59  58  96 S6        29.97R
ABERDEEN       CLEAR     61  59  93 S10       29.97S
MITCHELL       CLEAR     58  57  97 S7        30.03R
PIERRE         CLEAR     61  60  97 S3        29.97R
MOBRIDGE       MOCLDY    63  63 100 S5        29.94R
RAPID CITY     CLEAR     58  52  80 CALM      30.05S
$$

  *****  SOME WEATHER IN NEARBY STATES *****

CITY           SKY/WX    TMP DP  RH WIND       PRES   REMARKS
GLASGOW MT     MOCLDY    65  45  48 SE7       29.88R HAZE
GREAT FALLS MT MOCLDY    72  40  31 S8        29.94F HAZE
CHEYENNE WY    CLEAR     54  44  69 W6        30.29F
SCOTTSBLUFF NE CLEAR     53  49  86 E6        30.17S
OMAHA NE       DRIZZLE   62  61  96 N7        30.02R
DES MOINES IA  CLOUDY    64  61  90 N9        29.96R
DAVENPORT IA   CLOUDY    66  63  90 S6        29.95S
CHICAGO IL     RAIN      63  62  97 SE9       30.02F FOG
EAU CLAIRE WI  CLOUDY    56  54  93 E9        30.06R FOG
LA CROSSE WI   CLOUDY    61  57  87 NE3       30.02R
$$

  *****  SOME NATIONAL WEATHER *****

CITY           SKY/WX    TMP DP  RH WIND       PRES   REMARKS
LA GUARDIA NY  PTCLDY    70  55  59 NW6       30.20R
RALEIGH NC     PTCLDY    60  59  96 CALM      30.23R
ATLANTA GA     MOCLDY    72  68  87 SE6       30.16S
NEW ORLEANS LA MOCLDY    77  69  76 S6        30.00R
OKLAHOMA CITY  MOCLDY    68  65  90 S5        29.98S
ALBUQUERQUE NM PTCLDY    71  49  45 N6        30.28R
SALT LAKE CITY PTCLDY    73  43  33 S13       30.04S
LOS ANGELES CA CLEAR     73  67  81 CALM      29.86S
BOISE ID       CLOUDY    79  40  24 SE14      29.80F
SEATTLE WA     LGT RAIN  63  60  90 CALM      29.54F
$$

*** WEATHER ACROSS MANITOBA...SASKATCHEWAN AND ONTARIO ***
                ***ONTARIO***

CITY           SKY/WX    TMP DP  RH WIND       PRES   REMARKS
GERALDTON      LGT RAIN  61  59  94 W3        29.93R FOG
THUNDER BAY    FOG       54  54 100 NW2       29.95R VSB 1/2
SIOUX LOOKOUT  FOG       57  57 100 SE2       29.93R VSB 0
TORONTO        MOCLDY    61  55  82 NW2       30.14R
BIG TROUT LK   MOCLDY    59  57  94 S5        29.81S
PICKLE LAKE    FOG       59  59 100 W6        29.90  VSB 1/8
DRYDEN         FOG       59  59 100 SW7       29.93R VSB 0
KENORA         PTCLDY    64  63  94 W3        29.93R
$$
                *** MANITOBA***

CITY           SKY/WX    TMP DP  RH WIND       PRES   REMARKS
BRANDON        FOG       59  59 100 E6        29.88F VSB 0
DAUPHIN        CLEAR     54  50  87 VRB2      29.85R
ISLAND LAKE    PTCLDY    61  57  88 SW2       29.81S
PILOT MOUND      N/A     59  59 100 SE6         N/A
THE PAS        MOCLDY    57  54  88 SE12      29.72F
THOMPSON       PTCLDY    50  48  93 CALM      29.70R
WINNIPEG       CLEAR     63  63 100 S6        29.89S
LYNN LAKE      CLOUDY    50  48  93 MISG      29.68S
CHURCHILL      PTCLDY    54  52  94 W6        29.58S
$$
                ***SASKATCHEWAN***

CITY           SKY/WX    TMP DP  RH WIND       PRES   REMARKS
ESTEVAN        CLOUDY    59  52  77 S7        29.89S SMOKE
KINDERSLEY     PTCLDY    57  46  67 SW3       29.76R
LLOYDMINSTER   CLEAR     59  50  72 W13       29.66S HAZE
PRINCE ALBERT  CLOUDY    64  59  82 S3        29.64F
REGINA         CLOUDY    61  54  77 SE9       29.82F
YORKTON        PTCLDY    61  57  88 S9        29.81F



USA.gov is the U.S. government's official web portal to all federal, state and local government web resources and services.